This is the latest recevied weather packets stored in our database for station/object HA2SKA-1. If no packets are shown the sender has not sent any weather packets the latest 10 day(s).
| Time | Temp. | Humidity | Pressure | Rain* | Wind** | Luminosity | Snow |
|---|---|---|---|---|---|---|---|
| 1777380357 | 23.33° C | 25% | 1020.8 hPa | - | - | - | - |
| 1777379457 | 23.33° C | 26% | 1020.9 hPa | - | - | - | - |
| 1777378556 | 22.22° C | 26% | 1021 hPa | - | - | - | - |
| 1777377656 | 22.78° C | 24% | 1020.9 hPa | - | - | - | - |
| 1777376756 | 21.67° C | 27% | 1021.1 hPa | - | - | - | - |
| 1777374965 | 21.67° C | 26% | 1021.3 hPa | - | - | - | - |
| 1777374065 | 21.11° C | 27% | 1021.6 hPa | - | - | - | - |
| 1777373165 | 20.56° C | 26% | 1021.6 hPa | - | - | - | - |
| 1777372265 | 21.11° C | 28% | 1021.6 hPa | - | - | - | - |
| 1777371365 | 21.11° C | 30% | 1021.7 hPa | - | - | - | - |
| 1777370465 | 21.11° C | 27% | 1021.6 hPa | - | - | - | - |
| 1777369565 | 22.78° C | 26% | 1021.5 hPa | - | - | - | - |
| 1777368665 | 21.67° C | 27% | 1021.6 hPa | - | - | - | - |
| 1777367765 | 21.67° C | 26% | 1021.8 hPa | - | - | - | - |
| 1777366865 | 21.67° C | 27% | 1021.7 hPa | - | - | - | - |
| 1777365964 | 21.67° C | 26% | 1021.7 hPa | - | - | - | - |
| 1777365064 | 20.56° C | 27% | 1021.7 hPa | - | - | - | - |
| 1777364164 | 21.67° C | 27% | 1021.8 hPa | - | - | - | - |
| 1777363264 | 21.67° C | 29% | 1021.9 hPa | - | - | - | - |
| 1777362364 | 20° C | 31% | 1021.8 hPa | - | - | - | - |
| 1777361464 | 19.44° C | 31% | 1021.8 hPa | - | - | - | - |
| 1777360564 | 18.89° C | 39% | 1021.8 hPa | - | - | - | - |
| 1777359664 | 17.78° C | 43% | 1021.8 hPa | - | - | - | - |
| 1777358764 | 18.33° C | 44% | 1021.7 hPa | - | - | - | - |
| 1777357864 | 17.22° C | 45% | 1021.7 hPa | - | - | - | - |
* Rain since midnight (hover to see other rain measurements)
** Current wind speed in m/s (hover to see current wind gust speed)